Escanaba, MI

7:46 AM EDT on September 26, 2017 (GMT -0400)
Delta County

Weather History for KESC - November, 2014

Change the Weather History Date:

Wednesday, November 12, 2014

  Actual Average Record
Temperature  
Mean Temperature 24 °F -  
Max Temperature 30 °F 40 °F 55 °F (2005)
Min Temperature 19 °F 27 °F 5 °F (1986)
Degree Days  
Heating Degree Days 40    
Moisture  
Dew Point 18 °F    
Average Humidity 79    
Maximum Humidity 86    
Minimum Humidity 64    
Precipitation  
Precipitation 0.00 in - - ()
Sea Level Pressure  
Sea Level Pressure 30.06 in    
Wind  
Wind Speed 10 mph (West)    
Max Wind Speed 16 mph    
Max Gust Speed 20 mph    
Visibility 9 miles    
Events      
Averages and records for this station are not official NWS values.
T = Trace of Precipitation, MM = Missing Value Source: NWS Daily Summary

Daily Weather History Graph

Daily Weather History Graph

Search for Another Location

Airport or City:

Trip Planner

Search our weather history database for the weather conditions in past years. The results will help you decide how hot, cold, wet, or windy it might be!

Date:

Astronomy

Nov. 12, 2014 Rise Set
Actual Time 7:43 AM EST 5:20 PM EST
Civil Twilight 7:11 AM EST 5:52 PM EST
Nautical Twilight 6:35 AM EST 6:28 PM EST
Astronomical Twilight 6:01 AM EST 7:03 PM EST
Moon 10:42 PM EST (11/12) 12:27 PM EST (11/12)
Length of Visible Light 10h 40m
Length of Day
9h 36m
Waning Gibbous, 68% of the Moon is Illuminated
Nov 12
Waning Gibbous
Nov 14
Last Quarter
Nov 22
New
Nov 29
First Quarter
Dec 6
Full

Hourly Weather History & Observations

Time (EST) Temp. Windchill Dew Point Humidity Pressure Visibility Wind Dir Wind Speed Gust Speed Precip Events Conditions
12:15 AM 23.0 °F 13.1 °F 19.4 °F 86% 29.92 in 10.0 mi West 9.2 mph - N/A   Scattered Clouds
12:35 AM 23.0 °F 13.1 °F 19.4 °F 86% 29.94 in 10.0 mi West 9.2 mph - N/A   Mostly Cloudy
12:55 AM 23.0 °F 11.7 °F 17.6 °F 80% 29.93 in 10.0 mi West 11.5 mph - N/A   Overcast
1:15 AM 23.0 °F 11.7 °F 17.6 °F 80% 29.95 in 10.0 mi West 11.5 mph - N/A   Overcast
1:35 AM 23.0 °F 11.1 °F 17.6 °F 80% 29.95 in 10.0 mi West 12.7 mph - N/A   Overcast
1:55 AM 23.0 °F 11.7 °F 17.6 °F 80% 29.95 in 10.0 mi West 11.5 mph - N/A   Mostly Cloudy
2:15 AM 23.0 °F 9.6 °F 17.6 °F 80% 29.95 in 10.0 mi West 16.1 mph - N/A   Mostly Cloudy
2:35 AM 23.0 °F 11.7 °F 17.6 °F 80% 29.96 in 10.0 mi West 11.5 mph - N/A   Scattered Clouds
2:55 AM 21.2 °F 8.9 °F 17.6 °F 86% 29.97 in 10.0 mi West 12.7 mph - N/A   Mostly Cloudy
3:15 AM 21.2 °F 8.3 °F 17.6 °F 86% 29.97 in 10.0 mi WNW 13.8 mph - N/A   Partly Cloudy
3:35 AM 21.2 °F 8.9 °F 17.6 °F 86% 29.98 in 10.0 mi West 12.7 mph - N/A   Clear
3:55 AM 21.2 °F 9.5 °F 17.6 °F 86% 29.99 in 10.0 mi West 11.5 mph - N/A   Clear
4:15 AM 21.2 °F 8.3 °F 15.8 °F 80% 29.99 in 10.0 mi West 13.8 mph - N/A   Clear
4:35 AM 21.2 °F 8.3 °F 15.8 °F 80% 30.00 in 10.0 mi West 13.8 mph 17.3 mph N/A   Clear
4:55 AM 21.2 °F 9.5 °F 15.8 °F 80% 30.01 in 10.0 mi West 11.5 mph - N/A   Clear
5:15 AM 21.2 °F 9.5 °F 15.8 °F 80% 30.02 in 10.0 mi West 11.5 mph - N/A   Clear
5:35 AM 21.2 °F 10.1 °F 15.8 °F 80% 30.02 in 10.0 mi West 10.4 mph - N/A   Clear
5:55 AM 21.2 °F 10.1 °F 15.8 °F 80% 30.02 in 10.0 mi West 10.4 mph - N/A   Clear
6:15 AM 21.2 °F 8.9 °F 15.8 °F 80% 30.02 in 10.0 mi West 12.7 mph - N/A   Clear
6:35 AM 21.2 °F 8.9 °F 15.8 °F 80% 30.03 in 10.0 mi West 12.7 mph - N/A   Clear
6:55 AM 21.2 °F 10.1 °F 15.8 °F 80% 30.04 in 10.0 mi West 10.4 mph - N/A   Clear
7:15 AM 21.2 °F 10.1 °F 15.8 °F 80% 30.04 in 10.0 mi West 10.4 mph - N/A   Clear
7:35 AM 19.4 °F 9.5 °F 15.8 °F 86% 30.05 in 10.0 mi West 8.1 mph - N/A   Clear
7:55 AM 19.4 °F 10.4 °F 14.0 °F 80% 30.06 in 10.0 mi WSW 6.9 mph - N/A   Clear
8:15 AM 19.4 °F 9.5 °F 15.8 °F 86% 30.06 in 10.0 mi West 8.1 mph - N/A   Clear
8:35 AM 19.4 °F 7.2 °F 15.8 °F 86% 30.07 in 10.0 mi West 11.5 mph - N/A   Clear
8:55 AM 21.2 °F 11.7 °F 15.8 °F 80% 30.07 in 10.0 mi West 8.1 mph - N/A   Clear
9:15 AM 21.2 °F 10.1 °F 17.6 °F 86% 30.07 in 10.0 mi West 10.4 mph - N/A   Clear
9:35 AM 23.0 °F 11.7 °F 17.6 °F 80% 30.07 in 10.0 mi West 11.5 mph - N/A   Clear
9:55 AM 24.8 °F 14.6 °F 17.6 °F 74% 30.07 in 10.0 mi West 10.4 mph - N/A   Clear
10:15 AM 24.8 °F 12.9 °F 19.4 °F 80% 30.07 in 10.0 mi West 13.8 mph - N/A   Clear
10:35 AM 26.6 °F 16.8 °F 19.4 °F 74% 30.08 in 10.0 mi West 10.4 mph - N/A   Clear
10:55 AM 26.6 °F 15.7 °F 19.4 °F 74% 30.08 in 10.0 mi West 12.7 mph - N/A   Partly Cloudy
11:15 AM 26.6 °F 16.8 °F 19.4 °F 74% 30.08 in 10.0 mi West 10.4 mph 16.1 mph N/A   Mostly Cloudy
11:35 AM 28.4 °F 18.5 °F 19.4 °F 69% 30.07 in 10.0 mi West 11.5 mph - N/A   Mostly Cloudy
11:55 AM 28.4 °F 18.0 °F 21.2 °F 74% 30.07 in 10.0 mi West 12.7 mph 19.6 mph N/A   Overcast
12:15 PM 28.4 °F 20.4 °F 19.4 °F 69% 30.07 in 10.0 mi WNW 8.1 mph - N/A   Overcast
12:35 PM 30.2 °F 20.8 °F 21.2 °F 69% 30.06 in 10.0 mi West 11.5 mph 19.6 mph N/A   Mostly Cloudy
12:55 PM 28.4 °F 19.1 °F 19.4 °F 69% 30.06 in 10.0 mi WNW 10.4 mph - N/A   Scattered Clouds
1:15 PM 28.4 °F 19.7 °F 19.4 °F 69% 30.07 in 10.0 mi West 9.2 mph - N/A   Scattered Clouds
1:35 PM 30.2 °F 21.3 °F 19.4 °F 64% 30.07 in 10.0 mi West 10.4 mph - N/A   Mostly Cloudy
1:55 PM 28.4 °F 21.2 °F 21.2 °F 74% 30.07 in 10.0 mi WSW 6.9 mph - N/A   Mostly Cloudy
2:15 PM 30.2 °F 20.8 °F 21.2 °F 69% 30.07 in 10.0 mi West 11.5 mph 18.4 mph N/A   Overcast
2:35 PM 30.2 °F 20.2 °F 21.2 °F 69% 30.07 in 10.0 mi WSW 12.7 mph - N/A   Overcast
2:55 PM 30.2 °F 20.8 °F 21.2 °F 69% 30.07 in 10.0 mi WSW 11.5 mph - N/A   Overcast
3:15 PM 30.2 °F 20.8 °F 21.2 °F 69% 30.08 in 10.0 mi WSW 11.5 mph - N/A   Overcast
3:35 PM 30.2 °F 21.3 °F 21.2 °F 69% 30.08 in 10.0 mi WSW 10.4 mph - N/A   Overcast
3:55 PM 30.2 °F 21.9 °F 21.2 °F 69% 30.08 in 10.0 mi West 9.2 mph - N/A   Overcast
4:15 PM 30.2 °F 20.2 °F 19.4 °F 64% 30.09 in 10.0 mi West 12.7 mph 18.4 mph N/A   Overcast
4:35 PM 28.4 °F 21.2 °F 24.8 °F 86% 30.11 in 1.0 mi WNW 6.9 mph - N/A   Overcast
4:55 PM 26.6 °F 16.8 °F 23.0 °F 86% 30.11 in 2.0 mi West 10.4 mph - N/A   Overcast
5:15 PM 28.4 °F 20.4 °F 23.0 °F 80% 30.11 in 3.0 mi West 8.1 mph - N/A   Overcast
5:35 PM 26.6 °F 20.0 °F 23.0 °F 86% 30.11 in 10.0 mi West 5.8 mph - N/A   Overcast
5:55 PM 26.6 °F 19.1 °F 23.0 °F 86% 30.12 in 0.5 mi WNW 6.9 mph 17.3 mph N/A   Overcast
6:15 PM 26.6 °F 19.1 °F 21.2 °F 80% 30.13 in 5.0 mi WNW 6.9 mph - N/A   Overcast
6:35 PM 26.6 °F 22.6 °F 21.2 °F 80% 30.13 in 6.0 mi WNW 3.5 mph - N/A   Mostly Cloudy
6:55 PM 26.6 °F 19.1 °F 19.4 °F 74% 30.14 in 10.0 mi West 6.9 mph - N/A   Overcast
7:15 PM 24.8 °F 20.5 °F 19.4 °F 80% 30.14 in 10.0 mi West 3.5 mph - N/A   Overcast
7:35 PM 24.8 °F 16.9 °F 19.4 °F 80% 30.14 in 10.0 mi West 6.9 mph - N/A   Overcast
7:55 PM 24.8 °F 17.9 °F 19.4 °F 80% 30.14 in 10.0 mi West 5.8 mph - N/A   Mostly Cloudy
8:15 PM 23.0 °F 14.7 °F 19.4 °F 86% 30.14 in 10.0 mi West 6.9 mph - N/A   Clear
8:35 PM 23.0 °F 13.9 °F 17.6 °F 80% 30.14 in 10.0 mi West 8.1 mph - N/A   Clear
8:55 PM 21.2 °F 12.6 °F 17.6 °F 86% 30.14 in 10.0 mi West 6.9 mph - N/A   Clear
9:15 PM 21.2 °F 12.6 °F 17.6 °F 86% 30.14 in 10.0 mi West 6.9 mph - N/A   Clear
9:35 PM 21.2 °F 12.6 °F 15.8 °F 80% 30.14 in 10.0 mi West 6.9 mph - N/A   Clear
9:55 PM 21.2 °F 11.7 °F 15.8 °F 80% 30.14 in 10.0 mi West 8.1 mph - N/A   Clear
10:15 PM 21.2 °F 11.7 °F 15.8 °F 80% 30.14 in 10.0 mi West 8.1 mph - N/A   Clear
10:35 PM 21.2 °F 11.7 °F 15.8 °F 80% 30.15 in 10.0 mi West 8.1 mph - N/A   Clear
10:55 PM 19.4 °F 11.5 °F 15.8 °F 86% 30.15 in 10.0 mi West 5.8 mph - N/A   Clear
11:15 PM 19.4 °F 9.5 °F 14.0 °F 80% 30.15 in 10.0 mi West 8.1 mph - N/A   Clear
11:35 PM 19.4 °F 9.5 °F 12.2 °F 74% 30.15 in 10.0 mi West 8.1 mph - N/A   Clear
11:55 PM 19.4 °F 10.4 °F 14.0 °F 80% 30.15 in 10.0 mi West 6.9 mph - N/A   Clear